This is the latest recevied weather packets stored in our database for station/object AI5BL. If no packets are shown the sender has not sent any weather packets the latest 10 day(s).
| Time | Temp. | Humidity | Pressure | Rain* | Wind** | Luminosity | Snow |
|---|---|---|---|---|---|---|---|
| 1777558236 | 19.44° C | 99% | 1015.6 hPa | 0 mm | - | 138 W/m² | - |
| 1777557932 | 19.44° C | 99% | 1015.5 hPa | 0 mm | - | 97 W/m² | - |
| 1777557630 | 19.44° C | 99% | 1015.2 hPa | 0 mm | - | 97 W/m² | - |
| 1777557326 | 19.44° C | 99% | 1015.4 hPa | 0 mm | - | 91 W/m² | - |
| 1777557022 | 19.44° C | 99% | 1015.8 hPa | 0 mm | - | 106 W/m² | - |
| 1777556718 | 19.44° C | 99% | 1015.6 hPa | 0 mm | - | 150 W/m² | - |
| 1777556415 | 19.44° C | 99% | 1015.5 hPa | 1.78 mm | - | 129 W/m² | - |
| 1777556114 | 18.89° C | 99% | 1015.2 hPa | 3.56 mm | - | 180 W/m² | - |
| 1777555810 | 18.89° C | 99% | 1015.4 hPa | 3.05 mm | - | 56 W/m² | - |
| 1777555506 | 18.89° C | 99% | 1015.2 hPa | 1.27 mm | - | 55 W/m² | - |
| 1777555202 | 18.89° C | 99% | 1015 hPa | 0 mm | - | 27 W/m² | - |
| 1777554900 | 18.89° C | 99% | 1015 hPa | 0 mm | - | 27 W/m² | - |
| 1777554596 | 18.89° C | 99% | 1014.9 hPa | 0 mm | - | 27 W/m² | - |
| 1777554293 | 18.89° C | 99% | 1015.4 hPa | 0 mm | - | 27 W/m² | - |
| 1777553990 | 18.89° C | 99% | 1015.6 hPa | 0 mm | - | 27 W/m² | - |
| 1777553687 | 18.33° C | 99% | 1015.4 hPa | 0 mm | - | 46 W/m² | - |
| 1777553383 | 18.33° C | 99% | 1015.4 hPa | 0 mm | - | 46 W/m² | - |
| 1777553080 | 18.33° C | 99% | 1015.2 hPa | 0 mm | - | 23 W/m² | - |
| 1777552779 | 18.33° C | 99% | 1015.1 hPa | 10.67 mm | - | 14 W/m² | - |
| 1777552475 | 18.33° C | 99% | 1015.2 hPa | 10.67 mm | - | 13 W/m² | - |
| 1777552172 | 18.33° C | 99% | 1014.6 hPa | 0 mm | - | 3 W/m² | - |
| 1777551869 | 18.33° C | 99% | 1015 hPa | 0 mm | - | 3 W/m² | - |
| 1777551567 | 18.33° C | 99% | 1014.5 hPa | 0 mm | - | 3 W/m² | - |
| 1777551263 | 18.33° C | 99% | 1014.9 hPa | 1.27 mm | - | 3 W/m² | - |
| 1777550960 | 18.33° C | 99% | 1015.3 hPa | 7.87 mm | - | 3 W/m² | - |
* Rain latest hour (hover to see other rain measurements)
** Current wind speed in m/s (hover to see current wind gust speed)